Regional Weather Roundup
Issued by NWS

Home | Current Version | Previous Version | Text Only | Print | Product List | Glossary Off
Versions: 1 2 3 4 5 6 7 8 9 10 11 12 13 14 15 16 17 18 19 20 21 22 23 24 25 26 27 28 29 30 31 32 33 34 35 36 37 38 39 40 41 42 43 44 45 46 47 48 49 50

000
ASUS43 KIND 041309
RWRIN

WEATHER ROUNDUP FOR INDIANA
NATIONAL WEATHER SERVICE INDIANAPOLIS IN
800 AM EST SUN DEC 04 2016

NOTE: "FAIR" INDICATES FEW OR NO CLOUDS BELOW 12,000 FEET WITH NO
SIGNIFICANT WEATHER AND/OR OBSTRUCTIONS TO VISIBILITY.

* - STATION DOES NOT REPORT WEATHER SUCH AS PRECIPITATION OR FOG.

+ - STATION NOT QUALITY CONTROLLED BY THE NATIONAL WEATHER SERVICE.
    USE DATA WITH CAUTION...ESPECIALLY DEWPOINT AND RELATIVE
    HUMIDITY OBSERVATIONS.

INZ001>003-010>013-019-020-041400-
NORTHWEST INDIANA

CITY           SKY/WX    TMP DP  RH WIND       PRES   REMARKS
GARY /AIRPORT/ CLOUDY    32  28  86 SE5       30.18F WCI  27
KNOX *+        CLOUDY    32  14  47 CALM      30.18S
LA PORTE +     CLOUDY    33  33 100 CALM      30.19S
MICHIGAN CITY+ CLOUDY    32  28  86 CALM      30.19F
MONTICELLO +   CLOUDY    32  25  74 E3        30.16F
RENSSELAER +     N/A     32  32 100 E5        30.17F WCI  27
VALPARAISO     CLOUDY    32  28  85 E6        30.17F WCI  26

$$

LMZ046-743>745-041400-
SOUTHERN LAKE MICHIGAN

STATION/POSITION TIME  TEMP    WIND        PRES    WAVE
                       AIR SEA DIR/SP/G            HT
                 (UTC) (F)     (DEG/KT/KT) (MB)    (FT)
BURNS HARBOR     1240   33     150/  8/ 12 1022.4S
MICHIGAN CITY    1210   32     110/  7/  9   N/A

$$

INZ004-005-014>016-021>024-041400-
NORTH CENTRAL INDIANA

CITY           SKY/WX    TMP DP  RH WIND       PRES   REMARKS
GOSHEN         CLOUDY    33  26  75 SE6       30.18F WCI  28
LOGANSPORT +   CLOUDY    32  28  86 E3        30.19R
PERU/GRISSOM   CLOUDY    32  31  94 E3        30.16S
ROCHESTER +    CLOUDY    34  32  93 E3        30.18S
SOUTH BEND     CLOUDY    31  25  78 SE5       30.19S WCI  26
WARSAW +       CLOUDY    32  27  80 SE3       30.18F

$$

INZ006>009-017-018-025>027-041400-
NORTHEAST INDIANA

CITY           SKY/WX    TMP DP  RH WIND       PRES   REMARKS
ANGOLA *+      CLOUDY    32  27  80 SE6       30.18F WCI  26
AUBURN +       CLOUDY    32  27  80 E3        30.19F
FORT WAYNE     CLOUDY    31  26  82 E6        30.19F WCI  25
HUNTINGTON +   MOCLDY    31  28  88 E3        30.18S
KENDALLVILLE + CLOUDY    32  27  80 SE6       30.18S WCI  26

$$

INZ028-029-035-036-043>045-051>053-041400-
WEST CENTRAL INDIANA

CITY           SKY/WX    TMP DP  RH WIND       PRES   REMARKS
CRAWFORDSVL +  CLOUDY    32  31  96 E6        30.15R WCI  26
GREENCASTLE +  CLOUDY    34  32  93 E6        30.14S WCI  29
LAFAYETTE      CLOUDY    33  29  85 E7        30.16F WCI  27
TERRE HAUTE    LGT RAIN  35  30  82 E5        30.14F WCI  31

$$

INZ030>032-037>040-046>048-054>057-064-065-041400-
CENTRAL INDIANA

CITY           SKY/WX    TMP DP  RH WIND       PRES   REMARKS
CP ATTERBURY + CLOUDY    34  32  93 CALM      30.16F
COLUMBUS       CLOUDY    36  32  87 E6        30.17F
FISHERS *+     CLOUDY    32  32 100 CALM      30.16
FRANKFORT +    CLOUDY    35  32  90 SE5       30.17S WCI  31
GREENWOOD *+   CLOUDY    35  32  88 SE3       30.16F
INDIANAPOLIS   CLOUDY    35  30  82 E6        30.15F WCI  30
-EAGLE CREEK   CLOUDY    35  28  75 SE5       30.15F WCI  31
KOKOMO +       CLOUDY    32  30  92 E5        30.18S WCI  27
MARION +       CLOUDY    32  30  92 E3        30.18S FOG
MT COMFORT *+  CLOUDY    34  30  86 SE5       30.16S WCI  30
SHELBYVILLE    CLOUDY    36  30  79 SE7       30.15F
ZIONSVILLE +   CLOUDY    32  29  88 E3        30.16S

$$

INZ033-034-041-042-049-050-058-059-041400-
EAST CENTRAL INDIANA

CITY           SKY/WX    TMP DP  RH WIND       PRES   REMARKS
MUNCIE         CLOUDY    35  30  82 SE5       30.16F WCI  31

$$

INZ060-061-067>069-081>083-085>088-041400-
SOUTHWEST INDIANA

CITY           SKY/WX    TMP DP  RH WIND       PRES   REMARKS
EVANSVILLE     CLOUDY    39  34  82 E6        30.10F
HUNTINGBURG *+ CLOUDY    38  34  85 E8        30.12F
WASHINGTON +   DRIZZLE   37  35  92 SE6       30.12F

$$

INZ062-063-066-070>080-084-089>092-041400-
SOUTH CENTRAL AND SOUTHEAST INDIANA

CITY           SKY/WX    TMP DP  RH WIND       PRES   REMARKS
BLOOMINGTON    LGT RAIN  36  29  75 E7        30.13F
MADISON *+     CLOUDY    37  32  81 E5        30.18F
NORTH VERNON + CLOUDY    37  36  93 E5        30.17F
SEYMOUR +      CLOUDY    39  32  75 E5        30.15F

$$




USA.gov is the U.S. government's official web portal to all federal, state and local government web resources and services.